This is the latest recevied weather packets stored in our database for station/object EA5JUX. If no packets are shown the sender has not sent any weather packets the latest 10 day(s).
| Time | Temp. | Humidity | Pressure | Rain* | Wind** | Luminosity | Snow |
|---|---|---|---|---|---|---|---|
| 1778243236 | 18.89° C | 71% | 1012 hPa | 0 mm | - | - | - |
| 1778242936 | 18.33° C | 69% | 1012.2 hPa | 0 mm | - | - | - |
| 1778242636 | 18.33° C | 70% | 1012.4 hPa | 0 mm | - | - | - |
| 1778242336 | 18.89° C | 70% | 1012.4 hPa | 0 mm | - | - | - |
| 1778242054 | 18.89° C | 70% | 1012.3 hPa | 0 mm | - | - | - |
| 1778241736 | 18.33° C | 69% | 1012.2 hPa | 0 mm | - | - | - |
| 1778241436 | 18.33° C | 70% | 1012.1 hPa | 0 mm | - | - | - |
| 1778241136 | 18.33° C | 70% | 1012.3 hPa | 0 mm | - | - | - |
| 1778240858 | 18.33° C | 70% | 1012.2 hPa | 0 mm | - | - | - |
| 1778240536 | 17.78° C | 72% | 1012.1 hPa | 0 mm | - | - | - |
| 1778240236 | 17.22° C | 75% | 1012.1 hPa | 0 mm | - | - | - |
| 1778239936 | 17.22° C | 79% | 1012.3 hPa | 0 mm | - | - | - |
| 1778239636 | 16.11° C | 82% | 1012.2 hPa | 0 mm | - | - | - |
| 1778239336 | 15.56° C | 83% | 1012.2 hPa | 0 mm | - | - | - |
| 1778239036 | 15.56° C | 84% | 1012.5 hPa | 0 mm | - | - | - |
| 1778238736 | 15.56° C | 84% | 1012.5 hPa | 0 mm | - | - | - |
| 1778238456 | 16.11° C | 84% | 1012.6 hPa | 0 mm | - | - | - |
| 1778238137 | 15.56° C | 83% | 1012.8 hPa | 0 mm | - | - | - |
| 1778237837 | 16.11° C | 83% | 1013.1 hPa | 0 mm | - | - | - |
| 1778237536 | 16.11° C | 82% | 1013.3 hPa | 0 mm | - | - | - |
| 1778237237 | 16.11° C | 81% | 1013.3 hPa | 0 mm | - | - | - |
| 1778236936 | 16.11° C | 80% | 1013.6 hPa | 0 mm | - | - | - |
| 1778236636 | 16.67° C | 77% | 1013.5 hPa | 0 mm | - | - | - |
| 1778236336 | 16.11° C | 77% | 1013.5 hPa | 0 mm | - | - | - |
| 1778236059 | 16.67° C | 78% | 1013.6 hPa | 0 mm | - | - | - |
* Rain latest hour (hover to see other rain measurements)
** Current wind speed in m/s (hover to see current wind gust speed)